time,Temperature (deg_C),Bottom Pressure (psia)
2017-09-03 06:00:00,4.32028333346049,2277.5982552083333
2017-09-03 06:01:00,4.401900053024292,2277.596412150065
2017-09-03 06:02:00,4.421849966049194,2277.5952404785157
2017-09-03 06:03:00,4.42003337542216,2277.593598836263
2017-09-03 06:04:00,4.513966719309489,2277.594006958008
2017-09-03 06:05:00,4.5031998952229815,2277.5925170898436
2017-09-03 06:06:00,4.584916750590007,2277.59138285319
2017-09-03 06:07:00,4.31351653734843,2277.588655395508
2017-09-03 06:08:00,4.363749980926514,2277.598041381836
2017-09-03 06:09:00,4.673733393351237,2277.5851910400393
2017-09-03 06:10:00,4.520416657129924,2277.5854892985026
2017-09-03 06:11:00,4.292850097020467,2277.5832122802735
2017-09-03 06:12:00,4.100433270136516,2277.581916707357
2017-09-03 06:13:00,4.348516623179118,2277.5808217366534
2017-09-03 06:14:00,4.7684166431427,2277.5773299153648
2017-09-03 06:15:00,4.899533271789551,2277.576818237305
2017-09-03 06:16:00,4.740949948628743,2277.5727923583986
2017-09-03 06:17:00,4.54188338915507,2277.5715376790363
2017-09-03 06:18:00,4.656233390172322,2277.5724003092446
2017-09-03 06:19:00,4.686850070953369,2277.570663248698
2017-09-03 06:20:00,4.630849997202556,2277.5690753173826
2017-09-03 06:21:00,4.590833346048991,2277.5644053141277
2017-09-03 06:22:00,4.622183243433635,2277.560788574219
2017-09-03 06:23:00,4.778533379236857,2277.5585711669924
2017-09-03 06:24:00,4.650450070699056,2277.5539969889323
2017-09-03 06:25:00,4.619050105412801,2277.5523887567933
2017-09-03 06:26:00,4.653333425521851,2277.5492877197266
2017-09-03 06:27:00,4.416166702906291,2277.543798014323
2017-09-03 06:28:00,4.406099955240886,2277.540638224284
2017-09-03 06:29:00,4.556116580963135,2277.5379302978517
2017-09-03 06:30:00,4.503499984741211,2277.536264851888
2017-09-03 06:31:00,4.520466566085815,2277.532670288086
2017-09-03 06:32:00,4.771566708882649,2277.5287729899087
2017-09-03 06:33:00,4.754583358764648,2277.524763793945
2017-09-03 06:34:00,4.477716604868571,2277.5222861735024
2017-09-03 06:35:00,4.459083318710327,2277.520524698893
2017-09-03 06:36:00,4.680733283360799,2277.516165974935
2017-09-03 06:37:00,4.489183266957601,2277.5128818766275
2017-09-03 06:38:00,4.510266701380412,2277.5088810221355
2017-09-03 06:39:00,4.575850009918213,2277.503452351888
2017-09-03 06:40:00,4.69623335202535,2277.5004036458336
2017-09-03 06:41:00,4.647616624832153,2277.4967728678384
2017-09-03 06:42:00,4.673349936803182,2277.4933227539063
2017-09-03 06:43:00,4.820300022761027,2277.487551269531
2017-09-03 06:44:00,4.708933353424072,2277.4854654947917
2017-09-03 06:45:00,4.789816617965698,2277.4816892496747
2017-09-03 06:46:00,4.935383240381877,2277.475527750651
2017-09-03 06:47:00,4.802799940109253,2277.4708943684896
2017-09-03 06:48:00,4.501849969228108,2277.4653611246745
2017-09-03 06:49:00,4.195299943288167,2277.459606730143
2017-09-03 06:50:00,4.121516625086467,2277.4654536946614
2017-09-03 06:51:00,4.353200117746989,2277.449912109375
2017-09-03 06:52:00,4.509716669718425,2277.4454779052735
2017-09-03 06:53:00,4.5681999524434405,2277.4509950764973
2017-09-03 06:54:00,4.5664998690287275,2277.4339947509766
2017-09-03 06:55:00,4.658933321634929,2277.428685506185
2017-09-03 06:56:00,4.480883359909058,2277.4231831868487
2017-09-03 06:57:00,4.302516619364421,2277.4195845540366
2017-09-03 06:58:00,4.426400025685628,2277.4134240722656
2017-09-03 06:59:00,4.727100054423015,2277.40907409668
2017-09-03 07:00:00,4.609683434168498,2277.4039609781903
2017-09-03 07:01:00,4.304666678110759,2277.399545288086
2017-09-03 07:02:00,4.464183410008748,2277.3916973876953
2017-09-03 07:03:00,4.53315003712972,2277.387868041992
2017-09-03 07:04:00,4.229716698328654,2277.380930175781
2017-09-03 07:05:00,4.324999968210856,2277.373568318685
2017-09-03 07:06:00,4.471649964650472,2277.3667087809245
2017-09-03 07:07:00,4.57313338915507,2277.3622145589193
2017-09-03 07:08:00,4.810549974441528,2277.355139770508
2017-09-03 07:09:00,4.861549933751424,2277.3494630940754
2017-09-03 07:10:00,4.598399957021077,2277.343807779948
2017-09-03 07:11:00,4.296366771062215,2277.338110148112
2017-09-03 07:12:00,4.411433378855388,2277.3322766113283
2017-09-03 07:13:00,4.490750153859456,2277.3271323649087
2017-09-03 07:14:00,4.32480001449585,2277.320308227539
2017-09-03 07:15:00,4.483466784159343,2277.3144146728514
2017-09-03 07:16:00,4.572800079981486,2277.307754720052
2017-09-03 07:17:00,4.526516675949097,2277.300098470052
2017-09-03 07:18:00,4.562666654586792,2277.2952022298177
2017-09-03 07:19:00,4.668883323669434,2277.28432413737
2017-09-03 07:20:00,4.549816608428955,2277.279034016927
2017-09-03 07:21:00,4.489966710408528,2277.2727146402995
2017-09-03 07:22:00,4.43970004717509,2277.2643039957684
2017-09-03 07:23:00,4.4571332931518555,2277.2593540445964
2017-09-03 07:24:00,4.378483295440674,2277.2631805419924
2017-09-03 07:25:00,4.427200078964233,2277.2438242594403
2017-09-03 07:26:00,4.613566637039185,2277.2359769694012
2017-09-03 07:27:00,4.74756662050883,2277.2282385253907
2017-09-03 07:28:00,4.710133234659831,2277.2225321451824
2017-09-03 07:29:00,4.639899889628093,2277.2139371744793
2017-09-03 07:30:00,4.7833999792734785,2277.2069002278645
2017-09-03 07:31:00,4.689033269882202,2277.201677449544
2017-09-03 07:32:00,4.709683418273926,2277.1928798421222
2017-09-03 07:33:00,4.718883355458577,2277.184634806315
2017-09-03 07:34:00,4.82943336168925,2277.179636027018
2017-09-03 07:35:00,4.950800021489461,2277.1698150634766
2017-09-03 07:36:00,4.9792665640513105,2277.1643947347006
2017-09-03 07:37:00,4.805016756057739,2277.156428833008
2017-09-03 07:38:00,4.792683204015096,2277.148087565104
2017-09-03 07:39:00,4.738983233769734,2277.1401249186197
2017-09-03 07:40:00,4.579599936803182,2277.132495320638
2017-09-03 07:41:00,4.430833260218303,2277.123426513672
2017-09-03 07:42:00,4.238500118255615,2277.1180959065755
2017-09-03 07:43:00,4.426916678746541,2277.1085115559895
2017-09-03 07:44:00,4.605066617329915,2277.099111735026
2017-09-03 07:45:00,4.685050010681152,2277.091440226237
2017-09-03 07:46:00,4.697083393732707,2277.0805649820963
2017-09-03 07:47:00,4.480700095494588,2277.073077799479
2017-09-03 07:48:00,4.4845999876658125,2277.0627197265626
2017-09-03 07:49:00,4.649933338165283,2277.05479288737
2017-09-03 07:50:00,4.612649917602539,2277.045223795573
2017-09-03 07:51:00,4.440500020980835,2277.03687886556
2017-09-03 07:52:00,4.205733458201091,2277.029010213216
2017-09-03 07:53:00,4.088133414586385,2277.018643798828
2017-09-03 07:54:00,4.114449977874756,2277.020974731445
2017-09-03 07:55:00,4.11228346824646,2276.9992730712893
2017-09-03 07:56:00,4.14930001894633,2276.99077738444
2017-09-03 07:57:00,4.350616614023845,2276.979874674479
2017-09-03 07:58:00,4.711483319600423,2276.971208496094
2017-09-03 07:59:00,4.47873330116272,2276.963059692383
2017-09-03 08:00:00,4.2867832978566485,2276.953010253906
2017-09-03 08:01:00,4.30388339360555,2276.9451576741535
2017-09-03 08:02:00,4.494416793187459,2276.93731241862
2017-09-03 08:03:00,4.795699993769328,2276.9264451090494
2017-09-03 08:04:00,4.523950099945068,2276.9145843505858
2017-09-03 08:05:00,4.331933418909709,2276.9045727539065
2017-09-03 08:06:00,4.122150023778279,2276.8957029215494
2017-09-03 08:07:00,4.211499929428101,2276.8883400472005
2017-09-03 08:08:00,4.028716643651326,2276.8761419677735
2017-09-03 08:09:00,4.221916675567627,2276.867908528646
2017-09-03 08:10:00,4.702083190282186,2276.857782796224
2017-09-03 08:11:00,4.717983325322469,2276.847217203776
2017-09-03 08:12:00,4.381666739781697,2276.83803914388
2017-09-03 08:13:00,4.148483355840047,2276.838039550781
2017-09-03 08:14:00,4.249800046284993,2276.8177634684243
2017-09-03 08:15:00,4.517066637674968,2276.8090246582033
2017-09-03 08:16:00,4.6749500433603925,2276.79908976237
2017-09-03 08:17:00,4.551416794459025,2276.7874926757813
2017-09-03 08:18:00,4.663149992624919,2276.777073567708
2017-09-03 08:19:00,4.590200106302897,2276.766131184896
2017-09-03 08:20:00,4.689183314641316,2276.7572648111977
2017-09-03 08:21:00,4.419183333714803,2276.745577392578
2017-09-03 08:22:00,4.210233290990193,2276.735884399414
2017-09-03 08:23:00,4.054433425267537,2276.725625406901
2017-09-03 08:24:00,4.039766709009807,2276.7184364827476
2017-09-03 08:25:00,4.100350062052409,2276.707522176107
2017-09-03 08:26:00,4.152000029881795,2276.6971612548828
2017-09-03 08:27:00,4.120500008265178,2276.686502278646
2017-09-03 08:28:00,4.3954165776570635,2276.675395304362
2017-09-03 08:29:00,4.416316668192546,2276.665328979492
2017-09-03 08:30:00,4.16985011100769,2276.6558770751953
2017-09-03 08:31:00,3.9180166721343994,2276.6440246582033
2017-09-03 08:32:00,3.8774666786193848,2276.632354329427
2017-09-03 08:33:00,4.2315833568573,2276.6212764485676
2017-09-03 08:34:00,4.504050016403198,2276.61005859375
2017-09-03 08:35:00,4.326416571935018,2276.5977866617836
2017-09-03 08:36:00,4.1875,2276.589012451172
2017-09-03 08:37:00,4.371766646703084,2276.589592692057
2017-09-03 08:38:00,4.276299953460693,2276.56727722168
2017-09-03 08:39:00,4.334699948628743,2276.5575380452474
2017-09-03 08:40:00,4.341616630554199,2276.5466697184243
2017-09-03 08:41:00,4.143100102742513,2276.534985555013
2017-09-03 08:42:00,4.3820165793101,2276.5335803222656
2017-09-03 08:43:00,4.545950094858806,2276.5109702555337
2017-09-03 08:44:00,4.527916669845581,2276.5001475016275
2017-09-03 08:45:00,4.719399929046631,2276.489658203125
2017-09-03 08:46:00,4.749950091044108,2276.4796665445965
2017-09-03 08:47:00,4.854699929555257,2276.46939839681
2017-09-03 08:48:00,4.735950072606404,2276.4677964274088
2017-09-03 08:49:00,4.730133295059204,2276.4468631998698
2017-09-03 08:50:00,4.5506166617075605,2276.435417277018
2017-09-03 08:51:00,4.7499667803446455,2276.424441731771
2017-09-03 08:52:00,4.777783393859863,2276.415291341146
2017-09-03 08:53:00,4.48990003267924,2276.402808227539
2017-09-03 08:54:00,4.704300085703532,2276.3913411458334
2017-09-03 08:55:00,4.747199932734172,2276.3820977783203
2017-09-03 08:56:00,4.714133421579997,2276.369129842122
2017-09-03 08:57:00,4.794166644414266,2276.3584427897135
2017-09-03 08:58:00,4.805000066757202,2276.3460756429035
2017-09-03 08:59:00,4.7120498816172285,2276.3465291341145
2017-09-03 09:00:00,4.713850021362305,2276.327046101888
2017-09-03 09:01:00,4.8948666254679365,2276.315777587891
2017-09-03 09:02:00,4.791983366012573,2276.305301920573
2017-09-03 09:03:00,4.792316675186157,2276.293560994466
2017-09-03 09:04:00,4.782449960708618,2276.279230143229
2017-09-03 09:05:00,4.510900020599365,2276.268646850586
2017-09-03 09:06:00,4.334016720453898,2276.257908121745
2017-09-03 09:07:00,4.5539999802907305,2276.2571138509115
2017-09-03 09:08:00,4.709733327229817,2276.2465938313803
2017-09-03 09:09:00,4.6650833288828535,2276.224682413737
2017-09-03 09:10:00,4.553099950154622,2276.2146547444663
2017-09-03 09:11:00,4.655699968338013,2276.2025638834634
2017-09-03 09:12:00,4.4951833089192705,2276.192172648112
2017-09-03 09:13:00,4.471266667048137,2276.180201822917
2017-09-03 09:14:00,4.210116624832153,2276.1672243245443
2017-09-03 09:15:00,4.303449948628743,2276.1573575846355
2017-09-03 09:16:00,4.482666730880737,2276.1463779703777
2017-09-03 09:17:00,4.688933293024699,2276.1334143066406
2017-09-03 09:18:00,4.752350012461345,2276.122320963542
2017-09-03 09:19:00,4.8578667640686035,2276.111228434245
2017-09-03 09:20:00,4.943783362706502,2276.1001470947267
2017-09-03 09:21:00,4.7823333740234375,2276.0893849690756
2017-09-03 09:22:00,4.641883293787639,2276.0780428059898
2017-09-03 09:23:00,4.588333288828532,2276.067196858724
2017-09-03 09:24:00,4.685700098673503,2276.05687113444
2017-09-03 09:25:00,4.784433364868164,2276.04391011556
2017-09-03 09:26:00,4.857750018437703,2276.045486043294
2017-09-03 09:27:00,4.791316668192546,2276.0226822916666
2017-09-03 09:28:00,4.68571670850118,2276.0124910481773
2017-09-03 09:29:00,4.261850039164226,2276.0015696207684
2017-09-03 09:30:00,4.159049987792969,2275.992149251302
2017-09-03 09:31:00,4.115183273951213,2275.9813793945314
2017-09-03 09:32:00,3.9513333241144815,2275.9677545166014
2017-09-03 09:33:00,4.051400025685628,2275.958199666341
2017-09-03 09:34:00,4.073466698328654,2275.9473317464194
2017-09-03 09:35:00,4.2663499514261884,2275.945489501953
2017-09-03 09:36:00,4.645933310190837,2275.9253068033854
2017-09-03 09:37:00,4.698116699854533,2275.914227294922
2017-09-03 09:38:00,4.651900053024292,2275.9033841959636
2017-09-03 09:39:00,4.643249988555908,2275.890056559245
2017-09-03 09:40:00,4.586866617202759,2275.880464070638
2017-09-03 09:41:00,4.6051333745320635,2275.8691524251303
2017-09-03 09:42:00,4.614050070444743,2275.85639058431
2017-09-03 09:43:00,4.336766719818115,2275.844856363932
2017-09-03 09:44:00,4.196200052897136,2275.8336484781903
2017-09-03 09:45:00,4.015349984169006,2275.822271931966
2017-09-03 09:46:00,4.296349922815959,2275.810176188151
2017-09-03 09:47:00,4.363300085067749,2275.800186767578
2017-09-03 09:48:00,4.553416808446248,2275.7902813720702
2017-09-03 09:49:00,4.445966720581055,2275.7782779947916
2017-09-03 09:50:00,4.592283328374227,2275.7671728515625
2017-09-03 09:51:00,4.5943334102630615,2275.7575889078776
2017-09-03 09:52:00,4.13373339176178,2275.7463755289714
2017-09-03 09:53:00,4.114783366521199,2275.734947509766
2017-09-03 09:54:00,4.300899982452393,2275.73585550944
2017-09-03 09:55:00,4.136316696802775,2275.7119346110026
2017-09-03 09:56:00,3.983000079790751,2275.702913614909
2017-09-03 09:57:00,3.8675333658854165,2275.6917584228518
2017-09-03 09:58:00,3.863466660181681,2275.681449991862
2017-09-03 09:59:00,3.958333373069763,2275.672075805664
2017-09-03 10:00:00,4.007816712061564,2275.6626590983074
2017-09-03 10:01:00,4.055200020472209,2275.650078125
2017-09-03 10:02:00,4.132583300272624,2275.638427734375
2017-09-03 10:03:00,4.330700079600017,2275.628067626953
2017-09-03 10:04:00,4.019866784413655,2275.615835571289
2017-09-03 10:05:00,4.238133351008098,2275.605509440104
2017-09-03 10:06:00,4.587716738382976,2275.6042578125
2017-09-03 10:07:00,4.499366680781047,2275.594142862956
2017-09-03 10:08:00,4.467033465703328,2275.572105712891
2017-09-03 10:09:00,4.6863166491190595,2275.562044067383
2017-09-03 10:10:00,4.759200096130371,2275.550843302409
2017-09-03 10:11:00,4.577249924341838,2275.53958984375
2017-09-03 10:12:00,4.641566673914592,2275.5303247070315
2017-09-03 10:13:00,4.587283293406169,2275.51792582194
2017-09-03 10:14:00,4.582316637039185,2275.518763631185
2017-09-03 10:15:00,4.813366651535034,2275.497423095703
2017-09-03 10:16:00,4.864199956258138,2275.4893430582683
2017-09-03 10:17:00,4.632749954859416,2275.4752323404946
2017-09-03 10:18:00,4.821283340454102,2275.466133626302
2017-09-03 10:19:00,4.964083353678386,2275.456454671224
2017-09-03 10:20:00,5.121666669845581,2275.44624593099
2017-09-03 10:21:00,5.440900007883708,2275.439335530599
2017-09-03 10:22:00,5.511916716893514,2275.4272951253256
2017-09-03 10:23:00,5.296050071716309,2275.419014485677
2017-09-03 10:24:00,5.162383317947388,2275.4064208984373
2017-09-03 10:25:00,4.918716589609782,2275.39636332194
2017-09-03 10:26:00,4.755000034968059,2275.398429361979
2017-09-03 10:27:00,4.852333386739095,2275.376708577474
2017-09-03 10:28:00,4.904099861780803,2275.368341471354
2017-09-03 10:29:00,5.008383274078369,2275.3574216715497
2017-09-03 10:30:00,4.9919666449228925,2275.348053588867
2017-09-03 10:31:00,4.959266583124797,2275.3371282958983
2017-09-03 10:32:00,4.845083316167195,2275.327446492513
2017-09-03 10:33:00,4.4393666585286455,2275.3190091959636
2017-09-03 10:34:00,4.216699997584025,2275.3204536946614
2017-09-03 10:35:00,4.0734333992004395,2275.3006762695313
2017-09-03 10:36:00,4.037850062052409,2275.29028910319
2017-09-03 10:37:00,4.263899962107341,2275.2818540445965
2017-09-03 10:38:00,4.300433317820231,2275.273171183268
2017-09-03 10:39:00,4.169316689173381,2275.263916015625
2017-09-03 10:40:00,3.9758333762486777,2275.255494384766
2017-09-03 10:41:00,3.7839667002360025,2275.246376139323
2017-09-03 10:42:00,3.7731833457946777,2275.2387693277997
2017-09-03 10:43:00,3.7667499780654907,2275.2296162923176
2017-09-03 10:44:00,3.731616655985514,2275.221532796224
2017-09-03 10:45:00,3.7112667163213096,2275.2129290771486
2017-09-03 10:46:00,3.7420500119527182,2275.2147556559244
2017-09-03 10:47:00,3.79818332195282,2275.1944492594403
2017-09-03 10:48:00,3.9131166537602744,2275.1982279459635
2017-09-03 10:49:00,3.8522666692733765,2275.1774389648435
2017-09-03 10:50:00,3.6711999972661338,2275.1706642659506
2017-09-03 10:51:00,3.5227500200271606,2275.1605190022788
2017-09-03 10:52:00,3.479033350944519,2275.1654498291014
2017-09-03 10:53:00,3.468483328819275,2275.144969889323
2017-09-03 10:54:00,3.409583330154419,2275.1369989013674
2017-09-03 10:55:00,3.4001166423161826,2275.1293827311197
2017-09-03 10:56:00,3.3509833017985025,2275.1223583984374
2017-09-03 10:57:00,3.331049998601278,2275.114395751953
2017-09-03 10:58:00,3.3435833056767783,2275.104244181315
2017-09-03 10:59:00,3.3172500133514404,2275.1076298014323
2017-09-03 11:00:00,3.2984999815622964,2275.09068359375
2017-09-03 11:01:00,3.3946667114893594,2275.0824147542316
2017-09-03 11:02:00,3.487933317820231,2275.0735502115886
2017-09-03 11:03:00,3.442633350690206,2275.066637166341
2017-09-03 11:04:00,3.425699989000956,2275.0564969889324
2017-09-03 11:05:00,3.4154666662216187,2275.0495874023436
2017-09-03 11:06:00,3.450433333714803,2275.0416477457684
2017-09-03 11:07:00,3.7311333815256753,2275.033814493815
2017-09-03 11:08:00,4.072083353996277,2275.026401163737
2017-09-03 11:09:00,4.155050039291382,2275.018766072591
2017-09-03 11:10:00,4.174616575241089,2275.0109393310545
2017-09-03 11:11:00,4.13301666577657,2275.0033091227215
2017-09-03 11:12:00,3.9847167332967124,2274.99579305013
2017-09-03 11:13:00,3.9441500107447305,2274.9887426757814
2017-09-03 11:14:00,3.988883296648661,2274.980021158854
2017-09-03 11:15:00,3.859683354695638,2274.972442423503
2017-09-03 11:16:00,3.9278666973114014,2274.964772338867
2017-09-03 11:17:00,3.9687666495641074,2274.957871907552
2017-09-03 11:18:00,3.942300001780192,2274.951459350586
2017-09-03 11:19:00,4.00713328520457,2274.9434580485026
2017-09-03 11:20:00,3.953516721725464,2274.9380954996745
2017-09-03 11:21:00,3.9143333037694297,2274.929104207357
2017-09-03 11:22:00,3.9925167163213096,2274.9247446695963
2017-09-03 11:23:00,3.9645000298817954,2274.9181925455728
2017-09-03 11:24:00,4.0573833386103315,2274.9230021158855
2017-09-03 11:25:00,4.094366629918416,2274.9061328125
2017-09-03 11:26:00,4.062233368555705,2274.8992852783203
2017-09-03 11:27:00,3.945916732152303,2274.892277628581
2017-09-03 11:28:00,3.7141666809717813,2274.8863771565757
2017-09-03 11:29:00,3.727799971898397,2274.88053507487
2017-09-03 11:30:00,3.662149985631307,2274.8749792480467
2017-09-03 11:31:00,3.5638999938964844,2274.868652750651
2017-09-03 11:32:00,3.4719333251317344,2274.8633455403647
2017-09-03 11:33:00,3.418000022570292,2274.8576420084637
2017-09-03 11:34:00,3.3547666470209756,2274.850628458659
2017-09-03 11:35:00,3.5373666683832803,2274.846848754883
2017-09-03 11:36:00,3.617649952570597,2274.8410662841798
2017-09-03 11:37:00,3.543633302052816,2274.8457820638023
2017-09-03 11:38:00,3.5192999839782715,2274.8274700927736
2017-09-03 11:39:00,3.4936999479929605,2274.8227264404295
2017-09-03 11:40:00,3.48895001411438,2274.8195650227863
2017-09-03 11:41:00,3.6088833014170327,2274.813683268229
2017-09-03 11:42:00,3.569599986076355,2274.8086987304687
2017-09-03 11:43:00,3.5501500368118286,2274.8030185953776
2017-09-03 11:44:00,3.6442999839782715,2274.7981400553385
2017-09-03 11:45:00,3.6974666515986123,2274.7939807128905
2017-09-03 11:46:00,3.772316654523214,2274.790425008138
2017-09-03 11:47:00,3.6542999744415283,2274.784577229818
2017-09-03 11:48:00,3.5164166688919067,2274.7804665120443
2017-09-03 11:49:00,3.4100499947865806,2274.7755869547527
2017-09-03 11:50:00,3.3322333097457886,2274.7721335856118
2017-09-03 11:51:00,3.3015999794006348,2274.7791623942057
2017-09-03 11:52:00,3.31196661790212,2274.7634810384116
2017-09-03 11:53:00,3.316683371861776,2274.770935668945
2017-09-03 11:54:00,3.2973833084106445,2274.756388956706
2017-09-03 11:55:00,3.331800023714701,2274.753616739909
2017-09-03 11:56:00,3.351700027783712,2274.750528564453
2017-09-03 11:57:00,3.4098166624704995,2274.7475708007814
2017-09-03 11:58:00,3.380716641743978,2274.7426220703123
2017-09-03 11:59:00,3.2789333264033,2274.738763224284
2017-09-03 12:00:00,3.296833316485087,2274.7369510904946
2017-09-03 12:01:00,3.389299988746643,2274.7346954345703
2017-09-03 12:02:00,3.476633310317993,2274.7314398193357
2017-09-03 12:03:00,3.5201666752497354,2274.725762532552
2017-09-03 12:04:00,3.5071833531061807,2274.725708211263
2017-09-03 12:05:00,3.45128333568573,2274.7195332845054
2017-09-03 12:06:00,3.438733379046122,2274.718053995768
2017-09-03 12:07:00,3.553966681162516,2274.7157466634117
2017-09-03 12:08:00,3.5038499434789023,2274.7124680582683
2017-09-03 12:09:00,3.445050001144409,2274.7096767171224
2017-09-03 12:10:00,3.369583328564962,2274.705006917318
2017-09-03 12:11:00,3.2924166520436606,2274.7044553629557
2017-09-03 12:12:00,3.268666625022888,2274.70158203125
2017-09-03 12:13:00,3.286050001780192,2274.6993821207684
2017-09-03 12:14:00,3.3441332578659058,2274.695083211263
2017-09-03 12:15:00,3.4166833559672036,2274.6939632161457
2017-09-03 12:16:00,3.4344499905904136,2274.70192972819
2017-09-03 12:17:00,3.462499976158142,2274.69022257487
2017-09-03 12:18:00,3.4748833179473877,2274.6881774902345
2017-09-03 12:19:00,3.3886166413625083,2274.684928588867
2017-09-03 12:20:00,3.2952667077382407,2274.6834480794273
2017-09-03 12:21:00,3.227850000063578,2274.6794169108075
2017-09-03 12:22:00,3.216749986012777,2274.677271931966
2017-09-03 12:23:00,3.2267500162124634,2274.677235107422
2017-09-03 12:24:00,3.2779499689737954,2274.67580078125
2017-09-03 12:25:00,3.3695167303085327,2274.6744993082684
2017-09-03 12:26:00,3.4998000065485635,2274.6727341715496
2017-09-03 12:27:00,3.564183314641317,2274.672141113281
2017-09-03 12:28:00,3.652750015258789,2274.6726234944663
2017-09-03 12:29:00,3.7192500034968057,2274.6710833740235
2017-09-03 12:30:00,3.6363832553227744,2274.6698486328123
2017-09-03 12:31:00,3.5915333032608032,2274.669416503906
2017-09-03 12:32:00,3.604550004005432,2274.6688163248696
2017-09-03 12:33:00,3.5162500143051147,2274.6684525553387
2017-09-03 12:34:00,3.4521833260854087,2274.6683723958336
2017-09-03 12:35:00,3.4703500668207803,2274.666089477539
2017-09-03 12:36:00,3.461716651916504,2274.6645267740887
2017-09-03 12:37:00,3.3768333196640015,2274.6644852701825
2017-09-03 12:38:00,3.3339166243871055,2274.664606323242
2017-09-03 12:39:00,3.3483166694641113,2274.673922932943
2017-09-03 12:40:00,3.452916661898295,2274.6632076009114
2017-09-03 12:41:00,3.5914999643961587,2274.6623716227214
2017-09-03 12:42:00,3.5620999733606973,2274.6635231526693
2017-09-03 12:43:00,3.592116673787435,2274.67260945638
2017-09-03 12:44:00,3.6772666772206626,2274.664077758789
2017-09-03 12:45:00,3.6597166856129966,2274.6618747965495
2017-09-03 12:46:00,3.5070666869481406,2274.6757466634112
2017-09-03 12:47:00,3.3676832914352417,2274.666013387044
2017-09-03 12:48:00,3.2618499994277954,2274.6666880289713
2017-09-03 12:49:00,3.279233376185099,2274.66773050944
2017-09-03 12:50:00,3.4026166200637817,2274.6679307047525
2017-09-03 12:51:00,3.414900024731954,2274.66955078125
2017-09-03 12:52:00,3.4832499821980796,2274.6704494222004
2017-09-03 12:53:00,3.4694832960764566,2274.6715728759764
2017-09-03 12:54:00,3.4446999629338584,2274.672967936198
2017-09-03 12:55:00,3.39888326327006,2274.674571329753
2017-09-03 12:56:00,3.582116683324178,2274.6749381510417
2017-09-03 12:57:00,3.6735666592915854,2274.675845336914
2017-09-03 12:58:00,3.5686166286468506,2274.679297281901
2017-09-03 12:59:00,3.40435000260671,2274.6796783447267
2017-09-03 13:00:00,3.2404833237330117,2274.6815838623047
2017-09-03 13:01:00,3.1570666631062827,2274.6817218017577
2017-09-03 13:02:00,3.1437666416168213,2274.6851021321613